sat.trackr.live / text

‹ back to catalog

STARLINK-2217

NORAD 48568 · 2021-041R

PAYLOAD ACTIVE UNKNOWN

§ Identity

Operator
Country
US
Launch date
2021-05-15
Launch site
AFETR
Launch vehicle
Mass (kg)
RCS (m²)

Purposes: comms

External: N2YO · Heavens-Above · Gunter

§ Orbital elements

Epoch: 2026-09-03T09:17:47.332896Z

Period
94.01 min
Inclination
53.1594°
Eccentricity
0.0000947
Mean motion
15.31715906 rev/d
Perigee alt
470.0 km
Apogee alt
471.3 km
Semi-major
6,848.8 km
B*
2.0856e-4
RAAN
20.1996°
Arg perigee
72.5061°
Mean anomaly
287.6044°
Rev number
29,249

§ Raw data

STARLINK-22171 48568U 21041R   26246.38735339  .00006115  00000+0  20856-3 0  99962 48568  53.1594  20.1996 0000947  72.5061 287.6044 15.31715906292493

JSON: /api/v1/satellites/48568 · /tle

For live sub-satellite position, see the globe view (requires WebGL).

§ Visibility from observer

Set your observer location to see the next 7 days of passes ≥ 10°. The values pass through the URL so the page stays shareable.

No JS? Fill the form by hand. The geolocation button needs JavaScript.